Home   Weather   Mississauga   Past weeks

Flag for Canada Past Weather in Mississauga, Ontario, Canada — Yesterday and Last 2 Weeks

Now
63 °F

Scattered clouds.


Feels Like: 63 °F
Forecast: 51 / 68 °F
Wind: 13 mph from West

Location: Toronto Pearson International Airport

Current Time: May 22, 2017 at 9:01:39 pm

Latest Report: May 22, 2017 at 8:00 pm


Visibility: 15 mi

Pressure: 29.93 "Hg

Humidity: 52%

Dew Point: 45 °F

Location of MississaugaLocation

Past Weather in Mississauga — Graph

°F

Mississauga Temperature Yesterday

Maximum temperature yesterday: 55 °F (at 12:00 am)
Minimum temperature yesterday: 50 °F (at 8:00 am)
Average temperature yesterday: 54 °F

High & Low Weather Summary for the Past Weeks

 TemperatureHumidityPressure
High86 °F (May 17, 3:00 pm)100% (May 21, 5:54 pm)30.37 "Hg (May 21, 5:54 pm)
Low36 °F (May 8, 5:00 am)23% (May 20, 3:00 pm)29.65 "Hg (May 18, 6:00 pm)
Average55 °F62%29.96 "Hg
* Reported May 7 8:00 pm — May 22 8:00 pm, Mississauga. Weather by CustomWeather, © 2017

Note: Actual official high and low records may vary slightly from our data, if they occured in-between our weather recording intervals... More about our weather records

Advertising

Mississauga Weather History for the Previous 24 Hours

Scroll right to see more
 ConditionsComfort  
Time TempWeatherWind HumidityBarometerVisibility
8:00 pm
Mon, May 22
63 °FScattered clouds.13 mph52%29.93 "Hg15 mi
7:00 pm63 °FPartly sunny.16 mph52%29.93 "Hg15 mi
6:00 pm63 °FBroken clouds.17 mph52%29.93 "Hg15 mi
5:00 pm63 °FBroken clouds.13 mph52%29.92 "Hg15 mi
4:00 pm61 °FBroken clouds.13 mph59%29.93 "Hg15 mi
3:00 pm59 °FBroken clouds.20 mph55%29.93 "Hg15 mi
2:00 pm61 °FPartly sunny.16 mph59%29.93 "Hg15 mi
1:00 pm57 °FBroken clouds.15 mph67%29.93 "Hg15 mi
12:00 pm59 °FPartly sunny.17 mph63%29.92 "Hg15 mi
11:00 am59 °FPartly sunny.15 mph72%29.91 "Hg15 mi
10:00 am59 °FOvercast.10 mph88%29.91 "Hg15 mi
9:00 am57 °FFog.6 mph94%29.92 "Hg6 mi
8:00 am55 °FFog.5 mph100%29.91 "Hg4 mi
7:00 am55 °FFog.2 mph94%29.91 "Hg4 mi
6:45 am55 °FCool.2 mph94%29.90 "Hg3 mi
6:38 am54 °FFog.2 mph100%29.90 "Hg2 mi
6:24 am54 °FFog.2 mph100%29.91 "Hg1 mi
6:00 am54 °FFog.No wind100%29.91 "Hg1 mi
5:49 am54 °FFog.2 mph100%29.91 "Hg0 mi
5:16 am54 °FFog.2 mph94%29.91 "Hg0 mi
5:00 am54 °FFog.No wind94%29.90 "Hg1 mi
4:16 am54 °FFog.2 mph100%29.91 "Hg1 mi
4:00 am54 °FFog.No wind100%29.90 "Hg1 mi
3:29 am55 °FFog.2 mph94%29.91 "Hg3 mi
3:00 am55 °FFog.5 mph94%29.90 "Hg4 mi
2:40 am55 °FFog.5 mph94%29.90 "Hg4 mi
2:16 am55 °FFog.5 mph94%29.91 "Hg5 mi
2:00 am55 °FFog.2 mph94%29.92 "Hg5 mi
1:45 am55 °FFog.3 mph94%29.91 "Hg5 mi
1:00 am54 °FFog.5 mph100%29.92 "Hg5 mi
12:31 am54 °FLight rain. Partly cloudy.3 mph100%29.92 "Hg5 mi
12:00 am54 °FFog.5 mph100%29.92 "Hg5 mi
11:52 pm
Sun, May 21
54 °FFog.6 mph100%29.93 "Hg5 mi
11:00 pm54 °FScattered showers. Fog.5 mph100%29.93 "Hg4 mi
10:00 pm54 °FScattered showers. Fog.6 mph100%29.94 "Hg5 mi
9:46 pm54 °FLight rain. Fog.5 mph100%29.95 "Hg5 mi
9:00 pm54 °FFog.5 mph100%29.95 "Hg3 mi
Weather by CustomWeather, © 2017

See weather overviewHow to use our weather pages